Lucknow / Amausi, India

12:27 PM IST on February 21, 2017 (GMT +0530)
Lucknow

Weather History for VILK - January, 2014

Change the Weather History Date:

Wednesday, January 8, 2014

  Actual Average Record
Temperature  
Mean Temperature 50 °F -  
Max Temperature 64 °F 68 °F 80 °F (2008)
Min Temperature 37 °F 49 °F 31 °F (2013)
Degree Days  
Heating Degree Days 14    
Moisture  
Dew Point 46 °F    
Average Humidity 90    
Maximum Humidity 100    
Minimum Humidity 56    
Precipitation  
Precipitation 0.00 in - - ()
Sea Level Pressure  
Sea Level Pressure 30.07 in    
Wind  
Wind Speed 2 mph ()    
Max Wind Speed 4 mph    
Max Gust Speed -    
Visibility 0.8 miles    
Events Fog    
Averages and records for this station are not official NWS values.
T = Trace of Precipitation, MM = Missing Value Source: Averaged Metar Reports

Daily Weather History Graph

Daily Weather History Graph

Search for Another Location

Airport or City:

Trip Planner

Search our weather history database for the weather conditions in past years. The results will help you decide how hot, cold, wet, or windy it might be!

Date:

Astronomy

Jan. 08, 2014 Rise Set
Actual Time 6:56 AM IST 5:29 PM IST
Civil Twilight 6:31 AM IST 5:54 PM IST
Nautical Twilight 6:02 AM IST 6:23 PM IST
Astronomical Twilight 5:34 AM IST 6:51 PM IST
Moon 11:46 AM IST (1/8) No Moon Set
Length of Visible Light 11h 23m
Length of Day
10h 33m
Waxing Crescent, 51% of the Moon is Illuminated
Jan 8
Waxing Crescent
Jan 16
Full
Jan 24
Last Quarter
Jan 31
New
Feb 7
First Quarter

Hourly Weather History & Observations

Time (IST) Temp. Windchill Dew Point Humidity Pressure Visibility Wind Dir Wind Speed Gust Speed Precip Events Conditions
12:00 AM 42.8 °F - 42.8 °F 100% 30.06 in - Calm Calm - N/A Fog Fog
1:00 AM 41.0 °F - 41.0 °F 100% 30.06 in - Variable 2.3 mph - N/A Fog Fog
2:00 AM 41.0 °F - 41.0 °F 100% 30.06 in - Variable 1.2 mph - N/A Fog Fog
2:30 AM 39 °F - 39 °F 100% 30.10 in 0 mi 2.3 mph - - Fog Heavy Fog
3:00 AM 39.2 °F - 39.2 °F 100% 30.06 in - Variable 1.2 mph - N/A Fog Fog
4:00 AM 39.2 °F - 39.2 °F 100% 30.04 in - Variable 1.2 mph - N/A Fog Fog
5:00 AM 42.8 °F - 42.8 °F 100% 30.04 in - Variable 1.2 mph - N/A Fog Fog
5:30 AM 42 °F - 42 °F 100% 30.08 in 0 mi 1.2 mph - - Fog Heavy Fog
5:30 AM 42.8 °F - 42.8 °F 100% 30.04 in - Variable 1.2 mph - N/A   Unknown
6:00 AM 42.8 °F 41.1 °F 42.8 °F 100% 30.06 in - SSE 3.5 mph - N/A   Unknown
6:30 AM 42.8 °F - 42.8 °F 100% 30.06 in - Variable 2.3 mph - N/A Fog Fog
7:00 AM 42.8 °F - 42.8 °F 100% 30.06 in - Calm Calm - N/A Fog Fog
7:30 AM 42.8 °F - 42.8 °F 100% 30.06 in - Variable 2.3 mph - N/A Fog Fog
8:00 AM 42.8 °F - 42.8 °F 100% 30.09 in - Variable 2.3 mph - N/A Fog Fog
8:30 AM 44 °F - 44 °F 99% 30.15 in 0 mi 2.3 mph - - Fog Heavy Fog
8:30 AM 44.6 °F - 44.6 °F 100% 30.09 in - Variable 2.3 mph - N/A Fog Fog
9:00 AM 44.6 °F - 44.6 °F 100% 30.12 in - Variable 2.3 mph - N/A Fog Fog
9:30 AM 44.6 °F - 44.6 °F 100% 30.15 in - Variable 2.3 mph - N/A Fog Fog
10:00 AM 46.4 °F - 46.4 °F 100% 30.15 in 0.0 mi Variable 2.3 mph - N/A Fog Fog
10:30 AM 46.4 °F - 46.4 °F 100% 30.15 in 0.0 mi Variable 2.3 mph - N/A   Unknown
11:00 AM 48.2 °F - 48.2 °F 100% 30.12 in 0.1 mi Variable 2.3 mph - N/A   Unknown
11:30 AM 50 °F - 49 °F 96% 30.17 in 0 mi 2.3 mph - - Fog Heavy Fog
11:30 AM 50.0 °F - 50.0 °F 100% 30.12 in 0.2 mi Variable 2.3 mph - N/A   Unknown
1:30 PM 55.4 °F - 51.8 °F 88% 30.06 in 1.4 mi Variable 2.3 mph - N/A   Mist
2:30 PM 61 °F - 50 °F 59% 30.05 in 1 mi East 3.5 mph - -   Haze
2:30 PM 60.8 °F - 50.0 °F 68% 30.04 in 2.2 mi East 3.5 mph - N/A   Haze
3:00 PM 62.6 °F - 50.0 °F 63% 30.01 in 2.2 mi Variable 2.3 mph - N/A   Haze
3:30 PM 62.6 °F - 48.2 °F 59% 30.01 in 2.2 mi Variable 2.3 mph - N/A   Haze
4:00 PM 64.4 °F - 48.2 °F 56% 30.01 in 1.9 mi Variable 2.3 mph - N/A   Haze
4:30 PM 64.4 °F - 48.2 °F 56% 30.01 in 1.9 mi Variable 2.3 mph - N/A   Haze
5:00 PM 62.6 °F - 48.2 °F 59% 30.01 in 1.9 mi Variable 2.3 mph - N/A   Haze
5:30 PM 61 °F - 51 °F 62% 30.06 in 1 mi 2.3 mph - -   Haze
6:00 PM 59.0 °F - 50.0 °F 72% 30.01 in 1.2 mi Variable 2.3 mph - N/A   Haze
6:30 PM 55.4 °F - 48.2 °F 77% 30.01 in 1.2 mi Variable 2.3 mph - N/A   Haze
8:30 PM 51 °F - 49 °F 92% 30.06 in 0 mi Calm Calm - - Fog Partial Fog
8:30 PM 50.0 °F - 50.0 °F 100% 30.04 in 0.3 mi Calm Calm - N/A Fog Fog
9:00 PM 50.0 °F - 48.2 °F 94% 30.04 in 0.2 mi NE 3.5 mph - N/A Fog Fog
10:00 PM 50.0 °F - 48.2 °F 94% 30.04 in 0.0 mi Calm Calm - N/A Fog Fog
11:00 PM 48.2 °F - 48.2 °F 100% 30.04 in - Calm Calm - N/A Fog Fog
11:30 PM 49 °F - 48 °F 96% 30.06 in 0 mi Calm Calm - - Fog Heavy Fog